Regional Weather Roundup
Issued by NWS

Home | Current Version | Previous Version | Graphics & Text | Print | Product List | Glossary On
Versions: 1 2 3 4 5 6 7 8 9 10 11 12 13 14 15 16 17 18 19 20 21 22 23 24 25 26 27 28 29 30 31 32 33 34 35 36 37 38 39 40 41 42 43 44 45 46 47 48 49 50
000
ASUS43 KFSD 120210
RWRSD

WEATHER ROUNDUP FOR SOUTH DAKOTA
NATIONAL WEATHER SERVICE SIOUX FALLS SD
800 PM CST MON DEC 11 2017

NOTE: "FAIR" INDICATES FEW OR NO CLOUDS BELOW 12,000 FEET WITH NO
SIGNIFICANT WEATHER AND/OR OBSTRUCTIONS TO VISIBILITY.


SDZ001>005-009-010-012>017-120300-
NORTHWEST AND NORTH CENTRAL SOUTH DAKOTA

CITY           SKY/WX    TMP DP  RH WIND       PRES   REMARKS
BUFFALO          N/A     27  23  85 W9        30.31S WCI  18
FAITH            N/A     36  28  73 NW12      30.36R
MOBRIDGE       CLOUDY    29  25  85 N5        30.33R WCI  24
$$

SDZ012>016-024>037-041>051-057-063-072>074-120300-
SOUTHWEST AND SOUTH CENTRAL SOUTH DAKOTA

CITY           SKY/WX    TMP DP  RH WIND       PRES   REMARKS
RAPID CTY ARPT CLEAR     26  20  77 N10       30.38R WCI  16
PIERRE         CLEAR     31  28  89 W7        30.36R WCI  24
CUSTER         CLOUDY    27  -1  30 W3        30.33S
ELLSWORTH AFB  CLEAR     31  24  72 N10       30.37R WCI  23
PHILIP         CLOUDY    38  29  70 NW6       30.39R
PINE RIDGE     CLEAR     28  22  78 CALM      30.40R
SPEARFISH      FAIR      34  16  47 W14       30.38S WCI  24
WINNER         CLOUDY    36  30  79 NW13      30.35S
$$

SDZ004>011-016>023-039-040-120300-
NORTHEAST SOUTH DAKOTA

CITY           SKY/WX    TMP DP  RH WIND       PRES   REMARKS
ABERDEEN       CLEAR     15  12  88 N7        30.36R WCI   5
WATERTOWN      PTCLDY    17  14  88 N12       30.29R WCI   4
BROOKINGS      CLEAR     18  14  84 N15       30.30R WCI   4
SISSETON         N/A     16  11  80 NW10      30.33R WCI   4
$$

SDZ017-020-022-023-036>040-048>070-120300-
SOUTHEAST SOUTH DAKOTA

CITY           SKY/WX    TMP DP  RH WIND       PRES   REMARKS
SIOUX FALLS    CLEAR     22  16  78 N16G25    30.30R WCI   8
HURON          CLEAR     20  16  84 N9        30.35R WCI   9
CHAMBERLAIN    CLEAR     32  27  83 NE5       30.35R WCI  27
MITCHELL       CLEAR     23  17  78 N13       30.37R WCI  11
YANKTON        CLEAR     27  20  75 NW14      30.33R WCI  16
$$

ABBREVIATIONS USED IN REMARKS
   TC - TEMPERATURE IN CELSIUS
  WCI - WIND CHILL INDEX
   HX - HEAT INDEX
  VSB - VISIBILITY




USA.gov is the U.S. government's official web portal to all federal, state and local government web resources and services.